This is the latest recevied weather packets stored in our database for station/object KC5TIL. If no packets are shown the sender has not sent any weather packets the latest 10 day(s).
| Time | Temp. | Humidity | Pressure | Rain* | Wind** | Luminosity | Snow |
|---|---|---|---|---|---|---|---|
| 1777556584 | 16.67° C | 85% | 1015.8 hPa | 0 mm | - | 65 W/m² | - |
| 1777556284 | 16.67° C | 85% | 1015.7 hPa | 0 mm | - | 76 W/m² | - |
| 1777555980 | 16.67° C | 86% | 1015.6 hPa | 0 mm | - | 92 W/m² | - |
| 1777555675 | 16.67° C | 85% | 1015.3 hPa | 0 mm | - | 82 W/m² | - |
| 1777555372 | 16.67° C | 86% | 1015.5 hPa | 0 mm | - | 52 W/m² | - |
| 1777555068 | 16.67° C | 86% | 1015.5 hPa | 0 mm | - | 61 W/m² | - |
| 1777554766 | 16.67° C | 86% | 1015.7 hPa | 0 mm | - | 75 W/m² | - |
| 1777554463 | 16.67° C | 86% | 1015.6 hPa | 0 mm | - | 86 W/m² | - |
| 1777554159 | 16.67° C | 85% | 1015.4 hPa | 0 mm | - | 77 W/m² | - |
| 1777553856 | 16.67° C | 86% | 1015.1 hPa | 0 mm | - | 75 W/m² | - |
| 1777553553 | 16.67° C | 86% | 1015.5 hPa | 0 mm | - | 75 W/m² | - |
| 1777553248 | 16.67° C | 86% | 1015.4 hPa | 0 mm | - | 67 W/m² | - |
| 1777552944 | 16.67° C | 87% | 1014.9 hPa | 0 mm | - | 59 W/m² | - |
| 1777552639 | 16.67° C | 87% | 1015.1 hPa | 0 mm | - | 62 W/m² | - |
| 1777552336 | 16.67° C | 87% | 1015.4 hPa | 0 mm | - | 44 W/m² | - |
| 1777552033 | 16.67° C | 87% | 1015.3 hPa | 0 mm | - | 39 W/m² | - |
| 1777551730 | 16.67° C | 87% | 1015.2 hPa | 0 mm | - | 37 W/m² | - |
| 1777551427 | 16.11° C | 87% | 1015.5 hPa | 0 mm | - | 29 W/m² | - |
| 1777551124 | 16.11° C | 87% | 1015.6 hPa | 0 mm | - | 22 W/m² | - |
| 1777550821 | 16.11° C | 87% | 1015.3 hPa | 0 mm | - | 18 W/m² | - |
| 1777550517 | 16.11° C | 87% | 1015.4 hPa | 0 mm | - | 15 W/m² | - |
| 1777550213 | 16.11° C | 87% | 1015.1 hPa | 0 mm | - | 11 W/m² | - |
| 1777549910 | 16.11° C | 87% | 1015.3 hPa | 0 mm | - | 6 W/m² | - |
| 1777549606 | 16.11° C | 87% | 1015.1 hPa | 0 mm | - | 3 W/m² | - |
| 1777549302 | 16.11° C | 87% | 1015.1 hPa | 0 mm | - | 1 W/m² | - |
* Rain latest hour (hover to see other rain measurements)
** Current wind speed in m/s (hover to see current wind gust speed)